Location: Ingoldesthorpe
(52.8667°N, 0.5167°E)
Time: 15:15:21
(UTC+00:00)

Cosmos 2237 - Pass Details

Date: 19 May 2025
Orbit: 848 x 854 km, 70.8° (Epoch: 17 June)

Event Time Altitude Azimuth Distance (km) Brightness Sun altitude
Rises 22:48:43 0° 327° (NNW) 3,423 8.8 -15.8°
Reaches altitude 10° 22:51:11 10° 325° (NW) 2,484 7.8 -15.9°
Maximum altitude 22:56:51 68° 243° (WSW) 914 4.3 -16.1°
Enters shadow 23:00:06 26° 167° (SSE) 1,616 5.1 -16.2°
